Tracking 31027 objects as of 19-Jul-2025
HD Live streaming from Space Station
objects crossing your sky now

BREEZE-M DEB

Track BREEZE-M DEB now!
10-day predictions


NORAD ID: 32040
Int'l Code: 2006-006T
Perigee: 394.9 km
Apogee: 13,178.6 km
Inclination: 51.6 °
Period: 250.3 minutes
Semi major axis: 13157 km
RCS: 0.077 m2 (small)
Launch date: February 28, 2006
Source: Commonwealth of Independent States (former USSR) (CIS)
Launch site: TYURATAM MISSILE AND SPACE COMPLEX (TTMTR)

Note: This is SATELLITE DEBRIS
Your satellite tracking list
FLOCK 4V 13
Track 1 satellite(s)




NASA's NSSDC Master Catalog

Two Line Element Set (TLE):
1 32040U 06006T   25199.82115415  .00009936  00000-0  48120-2 0  9998
2 32040  51.6456  46.5977 4857863 116.3112 300.9921  5.75213767365889
Source of the keplerian elements: AFSPC